7 * 24
多渠道服务支持
STARLINK-36868(NORAD编号68120)是美国SpaceX公司星链(Starlink)星座中的一颗低轨通信卫星,隶属于星链第二代卫星组网的组成部分。该卫星运行在近地轨道(LEO),为全球范围内提供高速低延迟互联网接入服务,尤其服务偏远地区及网络基础设施匮乏区域。 作为星链大规模组网中的一员,它采用相控阵天线技术,支持多用户同时通信,部分型号配备星间激光链路,提升网络传输效率。截至2026年3月,星链在轨活跃卫星已突破一万颗,STARLINK-36868是SpaceX持续拓展星座覆盖能力的具体体现,推动全球卫星互联网的普及应用。
美国
(US)
| 数据来源 | 国际轨道数据 |
| 星历时间: | 2026-09-13T11:31:39+0800 5小时前 查看轨道信息 |
| 半长轴: | 6843.737km |
| 偏心率: | 0.0002118 |
| 轨道倾角: | 97.286° |
| 近地点辐角 | 85.344° |
| 升交点赤经 | 215.243° |
| 平近点角 | 274.805° |
| 近地点: | 464.15km |
| 远地点: | 467.05km |
| 周期: | 93.907分钟 |
| 每日圈数: | 15.334262 |